Simultaneous Nadir Overpasses (SNOs) Predictions

Prediction of SNOs between METOP-A and TERRA Satellite Orbit:

Table of predicted SNOs for the next 14.0 days since TLE Epoch: 12/23/2011
Index Date Time (METOP-A) METOP-A Lat,Lon TERRA Lat,Lon Distance(km) Time Diff (sec)
1 12/26/2011 12:44:46 -81.23,-144.46 -81.23,-144.43 0.90 33
2 12/26/2011 13:35:26 81.23, 23.34 81.24, 23.33 0.84 41
3 12/29/2011 08:19:13 -81.23, -77.98 -81.23, -78.10 2.13 22
4 12/29/2011 09:09:53 81.23, 89.80 81.23, 89.64 2.83 52
5 01/01/2012 03:53:40 -81.23, -11.49 -81.23, -11.55 1.16 10
6 01/01/2012 04:44:20 81.23, 156.26 81.24, 156.16 1.78 64
7 01/03/2012 22:37:27 81.22,-113.00 81.21,-113.16 2.93 71
8 01/03/2012 23:28:06 -81.23, 54.99 -81.23, 54.83 2.67 2
9 01/06/2012 18:11:54
